9V1CE Weather Reports


time (UTC)temp
F
wind
direction
speed
knots
gust
knots
rain 1hr
in
rain 24hr
in
rain mn
in
humidity
%
barometer
mb
20260506200208 82 359 5.2 6.1 0.00 0.00 0.00 91 1007.4
20260506195704 82 8 4.3 6.1 0.00 0.00 0.00 92 1007.6
20260506195201 82 6 5.2 6.1 0.00 0.00 0.00 92 1007.4
20260506194658 82 347 5.2 6.1 0.00 0.00 0.00 92 1007.6
20260506194154 82 349 6.1 7.0 0.00 0.00 0.00 92 1007.8
20260506193652 82 353 6.1 7.0 0.00 0.00 0.00 91 1007.7
20260506193149 82 358 6.1 7.0 0.00 0.00 0.00 92 1007.6
20260506192646 82 359 5.2 5.2 0.00 0.00 0.00 92 1007.6
20260506192142 82 359 5.2 6.1 0.00 0.00 0.00 92 1007.7
20260506191639 82 0 5.2 6.1 0.00 0.00 0.00 91 1007.8
20260506191135 83 0 5.2 5.2 0.00 0.00 0.00 90 1007.9
20260506190632 83 5 4.3 5.2 0.00 0.00 0.00 90 1007.7
20260506190129 83 9 5.2 5.2 0.00 0.00 0.00 90 1007.9
20260506185626 83 15 5.2 5.2 0.00 0.00 0.00 90 1007.8
20260506185122 83 15 4.3 5.2 0.00 0.00 0.00 90 1008.0
20260506184620 83 14 5.2 5.2 0.00 0.00 0.00 90 1008.1
20260506184117 82 13 5.2 5.2 0.00 0.00 0.00 90 1008.1
20260506183614 82 7 5.2 5.2 0.00 0.00 0.00 90 1008.3
20260506183109 82 3 4.3 5.2 0.00 0.00 0.00 90 1008.3
20260506182607 82 7 5.2 5.2 0.00 0.00 0.00 90 1008.3
20260506182104 82 6 5.2 5.2 0.00 0.00 0.00 90 1008.6
20260506181602 82 6 5.2 5.2 0.00 0.00 0.00 90 1008.4
20260506181059 82 1 4.3 5.2 0.00 0.00 0.00 90 1008.5
20260506180555 82 3 5.2 6.1 0.00 0.00 0.00 90 1008.6
20260506180052 82 9 5.2 5.2 0.00 0.00 0.00 90 1008.7
20260506175548 82 6 5.2 6.1 0.00 0.00 0.00 90 1008.9
20260506175044 82 1 6.1 7.0 0.00 0.00 0.00 90 1008.7
20260506174544 82 356 5.2 6.1 0.00 0.00 0.00 90 1008.8
20260506174039 82 356 6.1 6.1 0.00 0.00 0.00 90 1008.8
20260506173537 82 12 5.2 6.1 0.00 0.00 0.00 90 1009.1
20260506173034 82 349 5.2 6.1 0.00 0.00 0.00 90 1009.1
20260506172531 82 3 5.2 6.1 0.00 0.00 0.00 90 1009.4
20260506172027 83 0 5.2 6.1 0.00 0.00 0.00 90 1009.3
20260506171525 83 11 5.2 5.2 0.00 0.00 0.00 90 1009.3
20260506171022 83 22 4.3 5.2 0.00 0.00 0.00 91 1009.3
20260506170520 82 3 5.2 5.2 0.00 0.00 0.00 91 1009.3
20260506170017 82 344 5.2 6.1 0.00 0.00 0.00 91 1009.4
20260506165516 82 353 6.1 6.1 0.00 0.00 0.00 91 1009.5
20260506165011 82 349 6.1 7.0 0.00 0.00 0.00 91 1009.5
20260506164508 83 343 7.8 8.7 0.00 0.00 0.00 90 1009.6
20260506164006 83 347 6.1 7.0 0.00 0.00 0.00 89 1009.6
20260506163501 83 346 7.0 7.8 0.00 0.00 0.00 88 1009.6
20260506162956 83 351 5.2 7.0 0.00 0.00 0.00 89 1009.6
20260506162454 83 341 7.0 7.8 0.00 0.00 0.00 89 1009.7
20260506161945 83 354 5.2 6.1 0.00 0.00 0.00 89 1009.7
20260506161443 83 352 5.2 6.1 0.00 0.00 0.00 89 1009.8
20260506160935 83 2 4.3 6.1 0.00 0.00 0.00 88 1009.7
20260506160432 84 9 4.3 5.2 0.00 0.00 0.00 87 1009.7
20260506155929 83 356 5.2 6.1 0.00 0.00 0.00 87 1009.9
20260506155426 83 356 5.2 6.1 0.00 0.00 0.00 86 1009.7
20260506153548 84 0 5.2 6.1 0.00 0.00 0.00 86 1009.7
20260506153046 84 359 5.2 5.2 0.00 0.00 0.00 87 1009.9
20260506152543 84 10 5.2 5.2 0.00 0.00 0.00 86 1009.9
20260506152041 84 357 5.2 7.0 0.00 0.00 0.00 86 1009.6
20260506151538 84 358 5.2 6.1 0.00 0.00 0.00 86 1009.8
20260506151035 84 347 6.1 7.0 0.00 0.00 0.00 85 1009.9
20260506150532 84 345 6.1 7.0 0.00 0.00 0.00 85 1009.7
20260506150029 84 351 5.2 6.1 0.00 0.00 0.00 84 1009.7
20260506145525 84 356 5.2 6.1 0.00 0.00 0.00 85 1009.9
20260506145023 84 1 5.2 6.1 0.00 0.00 0.00 85 1009.7
20260506144519 84 357 4.3 6.1 0.00 0.00 0.00 85 1009.7
20260506144017 84 358 5.2 6.1 0.00 0.00 0.00 85 1009.8
20260506143514 84 356 5.2 6.1 0.00 0.00 0.00 85 1009.9
20260506143013 84 2 5.2 5.2 0.00 0.00 0.00 85 1009.7
20260506142510 84 5 4.3 5.2 0.00 0.00 0.00 85 1009.5
20260506142008 84 3 5.2 6.1 0.00 0.00 0.00 85 1009.5
20260506141506 84 4 5.2 6.1 0.00 0.00 0.00 85 1009.3
20260506141004 84 0 4.3 6.1 0.00 0.00 0.00 85 1009.4
20260506140501 84 10 4.3 5.2 0.00 0.00 0.00 84 1009.1
20260506135957 84 6 5.2 5.2 0.00 0.00 0.00 84 1009.2
20260506135455 84 5 4.3 5.2 0.00 0.00 0.00 84 1009.2
20260506134951 84 6 4.3 5.2 0.00 0.00 0.00 84 1008.9
20260506134447 84 357 5.2 6.1 0.00 0.00 0.00 84 1008.9
20260506133943 84 0 5.2 6.1 0.00 0.00 0.00 83 1008.8
20260506133441 84 3 4.3 5.2 0.00 0.00 0.00 84 1008.9
20260506132937 84 1 5.2 6.1 0.00 0.00 0.00 84 1008.8
20260506132435 84 2 5.2 6.1 0.00 0.00 0.00 84 1008.6
20260506131932 84 355 6.1 6.1 0.00 0.00 0.00 85 1008.5
20260506131428 84 357 5.2 6.1 0.00 0.00 0.00 85 1008.6
20260506130925 84 349 5.2 6.1 0.00 0.00 0.00 84 1008.3
20260506130422 84 2 6.1 6.1 0.00 0.00 0.00 82 1008.4
20260506125920 84 359 5.2 5.2 0.00 0.00 0.00 82 1008.4
20260506125418 84 10 5.2 5.2 0.00 0.00 0.00 82 1008.5
20260506124916 84 356 4.3 5.2 0.00 0.00 0.00 82 1008.5
20260506124413 84 5 5.2 5.2 0.00 0.00 0.00 82 1008.7
20260506123911 84 0 5.2 5.2 0.00 0.00 0.00 82 1008.4
20260506123409 84 7 5.2 6.1 0.00 0.00 0.00 81 1008.4
20260506122906 84 359 6.1 7.0 0.00 0.00 0.00 82 1008.4
20260506122402 84 351 5.2 5.2 0.00 0.00 0.00 83 1008.4
20260506121901 84 6 5.2 6.1 0.00 0.00 0.00 82 1008.5
20260506121357 84 13 5.2 5.2 0.00 0.00 0.00 82 1008.4
20260506120854 84 0 4.3 7.0 0.00 0.00 0.00 83 1008.2
20260506120352 84 13 5.2 5.2 0.00 0.00 0.00 82 1008.0
20260506115849 84 9 4.3 6.1 0.00 0.00 0.00 82 1008.0
20260506115347 84 2 4.3 5.2 0.00 0.00 0.00 82 1007.9
20260506114845 84 4 5.2 6.1 0.00 0.00 0.00 82 1008.0
20260506114342 84 3 5.2 5.2 0.00 0.00 0.00 81 1007.7
20260506113841 84 7 4.3 6.1 0.00 0.00 0.00 81 1007.9
20260506113338 84 7 5.2 5.2 0.00 0.00 0.00 82 1007.9
20260506112835 85 8 4.3 5.2 0.00 0.00 0.00 82 1007.7
20260506112332 84 11 4.3 5.2 0.00 0.00 0.00 82 1007.8
20260506111829 85 13 5.2 5.2 0.00 0.00 0.00 83 1007.6
20260506111328 84 7 4.3 5.2 0.00 0.00 0.00 83 1007.7
20260506110825 84 6 4.3 5.2 0.00 0.00 0.00 82 1007.4
20260506110322 85 4 4.3 5.2 0.00 0.00 0.00 83 1007.5
20260506105819 85 14 4.3 5.2 0.00 0.00 0.00 83 1007.3
20260506105315 85 16 4.3 5.2 0.00 0.00 0.00 83 1007.4
20260506104812 85 14 4.3 5.2 0.00 0.00 0.00 83 1007.2
20260506104310 85 6 4.3 5.2 0.00 0.00 0.00 83 1007.3
20260506103808 85 14 4.3 5.2 0.00 0.00 0.00 83 1007.1
20260506103305 84 16 5.2 5.2 0.00 0.00 0.00 83 1007.1
20260506102802 84 13 5.2 5.2 0.00 0.00 0.00 83 1006.9
20260506102300 84 1 4.3 6.1 0.00 0.00 0.00 84 1007.0
20260506101757 84 357 6.1 6.1 0.00 0.00 0.00 83 1007.0
20260506101253 84 7 4.3 5.2 0.00 0.00 0.00 83 1007.1
20260506100751 84 0 5.2 7.0 0.00 0.00 0.00 83 1007.0
20260506100249 84 351 6.1 7.0 0.00 0.00 0.00 83 1007.2
20260506095748 84 2 4.3 6.1 0.00 0.00 0.00 83 1007.0
20260506095244 84 1 5.2 5.2 0.00 0.00 0.00 83 1007.1
20260506094740 84 353 5.2 7.0 0.00 0.00 0.00 84 1007.2
20260506094239 84 354 5.2 7.0 0.00 0.00 0.00 84 1007.3
20260506093737 84 342 6.1 7.8 0.00 0.00 0.00 84 1007.5
20260506093234 84 351 6.1 7.0 0.00 0.00 0.00 84 1007.5
20260506092732 85 10 4.3 5.2 0.00 0.00 0.00 83 1007.4
20260506092230 84 21 4.3 5.2 0.00 0.00 0.00 83 1007.4
20260506091727 84 14 4.3 5.2 0.00 0.00 0.00 84 1007.4
20260506091224 84 344 5.2 6.1 0.00 0.00 0.00 84 1007.3
20260506090721 84 345 7.0 8.7 0.00 0.00 0.00 85 1007.2
20260506090218 84 349 6.1 7.0 0.00 0.00 0.00 84 1007.1
20260506085715 83 352 6.1 7.0 0.00 0.00 0.00 85 1007.2
20260506085211 83 336 7.8 7.8 0.00 0.00 0.00 86 1007.3
20260506084708 83 340 7.0 7.8 0.00 0.00 0.00 87 1007.4
20260506084204 82 347 6.1 7.8 0.00 0.00 0.00 88 1007.2
20260506083701 82 340 7.8 9.6 0.00 0.00 0.00 88 1007.4
20260506083159 83 339 8.7 8.7 0.00 0.00 0.00 88 1007.3
20260506082656 82 332 7.8 10.4 0.00 0.00 0.00 88 1007.2
20260506082156 83 338 7.8 9.6 0.00 0.00 0.00 87 1007.4
20260506081655 83 331 7.8 9.6 0.00 0.00 0.00 87 1007.4
20260506081152 83 350 7.0 8.7 0.00 0.00 0.00 86 1007.4
20260506080650 83 344 7.8 8.7 0.00 0.00 0.00 87 1007.0
20260506080146 84 331 10.4 14.8 0.00 0.00 0.00 86 1007.5
20260506073130 86 13 4.3 5.2 0.00 0.00 0.00 76 1007.6
20260506072627 86 21 5.2 5.2 0.00 0.00 0.00 76 1007.7
20260506072125 86 10 4.3 5.2 0.00 0.00 0.00 75 1007.6
20260506071622 86 0 5.2 6.1 0.00 0.00 0.00 74 1007.6
20260506071120 86 13 5.2 5.2 0.00 0.00 0.00 77 1007.5
20260506070616 86 18 5.2 6.1 0.00 0.00 0.00 77 1007.7
20260506070114 86 15 5.2 5.2 0.00 0.00 0.00 79 1007.8
20260506062051 87 14 5.2 6.1 0.00 0.00 0.00 75 1007.6
20260506061546 87 8 4.3 5.2 0.00 0.00 0.00 75 1007.9
20260506061044 87 6 4.3 5.2 0.00 0.00 0.00 75 1007.9
20260506060543 87 7 4.3 6.1 0.00 0.00 0.00 75 1008.1
20260506051011 88 354 5.2 7.0 0.00 0.00 0.00 73 1008.9
20260506050509 87 4 4.3 5.2 0.00 0.00 0.00 76 1009.1
20260506045000 87 12 4.3 6.1 0.00 0.00 0.00 78 1009.0
20260506044458 87 4 5.2 5.2 0.00 0.00 0.00 79 1009.2
20260506043954 88 4 5.2 6.1 0.00 0.00 0.00 78 1009.3
20260506043451 88 12 5.2 6.1 0.00 0.00 0.00 77 1009.4
20260506042949 88 8 4.3 6.1 0.00 0.00 0.00 74 1009.5
20260506042448 88 9 4.3 5.2 0.00 0.00 0.00 74 1009.5
20260506041946 88 16 4.3 7.0 0.00 0.00 0.00 73 1009.7
20260506041444 88 353 5.2 6.1 0.00 0.00 0.00 73 1009.9
20260506040941 88 7 4.3 7.0 0.00 0.00 0.00 72 1010.1
20260506040438 88 10 4.3 6.1 0.00 0.00 0.00 73 1010.0
20260506035934 87 11 5.2 6.1 0.00 0.00 0.00 73 1009.8
20260506035432 88 13 5.2 5.2 0.00 0.00 0.00 74 1009.9
20260506034928 88 1 5.2 6.1 0.00 0.00 0.00 73 1009.9
20260506034426 88 357 5.2 8.7 0.00 0.00 0.00 72 1010.0
20260506033923 88 13 4.3 5.2 0.00 0.00 0.00 73 1010.0
20260506033420 87 15 5.2 5.2 0.00 0.00 0.00 75 1009.9
20260506032916 87 16 4.3 5.2 0.00 0.00 0.00 75 1010.0
20260506032413 87 13 4.3 5.2 0.00 0.00 0.00 73 1009.9
20260506031910 88 350 6.1 6.1 0.00 0.00 0.00 72 1009.9
20260506031408 87 13 4.3 5.2 0.00 0.00 0.00 74 1009.8
20260506030905 87 15 5.2 5.2 0.00 0.00 0.00 73 1010.0
20260506030403 87 17 5.2 5.2 0.00 0.00 0.00 74 1010.1
20260506025900 87 17 4.3 5.2 0.00 0.00 0.00 75 1010.0
20260506025356 87 352 5.2 6.1 0.00 0.00 0.00 74 1010.0
20260506024854 87 12 4.3 5.2 0.00 0.00 0.00 75 1009.8
20260506024351 87 25 4.3 5.2 0.00 0.00 0.00 76 1009.7
20260506023846 87 16 5.2 5.2 0.00 0.00 0.00 76 1009.6
20260506023343 87 3 4.3 5.2 0.00 0.00 0.00 77 1009.7
20260506022840 86 16 5.2 5.2 0.00 0.00 0.00 77 1009.5
20260506022338 86 10 4.3 5.2 0.00 0.00 0.00 77 1009.6
20260506021836 86 25 4.3 5.2 0.00 0.00 0.00 78 1009.8
20260506021332 86 11 4.3 5.2 0.00 0.00 0.00 79 1009.8
20260506020828 86 359 4.3 5.2 0.00 0.00 0.00 79 1009.7
20260506020326 86 24 5.2 5.2 0.00 0.00 0.00 81 1009.7
20260506015824 86 17 4.3 5.2 0.00 0.00 0.00 80 1009.6
20260506015321 86 9 5.2 6.1 0.00 0.00 0.00 79 1009.7
20260506014818 86 15 4.3 5.2 0.00 0.00 0.00 81 1009.6
20260506014315 86 14 5.2 6.1 0.00 0.00 0.00 82 1009.5
20260506013812 86 16 5.2 5.2 0.00 0.00 0.00 82 1009.6
20260506013309 86 8 5.2 5.2 0.00 0.00 0.00 82 1009.6
20260506012806 86 11 4.3 5.2 0.00 0.00 0.00 82 1009.7
20260506012307 86 6 4.3 5.2 0.00 0.00 0.00 82 1009.5
20260506011800 85 13 4.3 5.2 0.00 0.00 0.00 83 1009.7
20260506011256 85 6 5.2 5.2 0.00 0.00 0.00 84 1009.6
20260506010754 85 6 4.3 5.2 0.00 0.00 0.00 85 1009.3
20260506010252 85 22 5.2 5.2 0.00 0.00 0.00 86 1009.5
20260506005748 84 11 4.3 5.2 0.00 0.00 0.00 88 1009.3
20260506005245 84 12 4.3 5.2 0.00 0.00 0.00 90 1009.4
20260506004741 83 6 5.2 5.2 0.00 0.00 0.00 90 1009.3
20260506004239 83 355 5.2 5.2 0.00 0.00 0.00 91 1009.2
20260506003735 83 0 5.2 6.1 0.00 0.00 0.00 92 1009.2
20260506003231 83 351 6.1 6.1 0.00 0.00 0.00 92 1008.8
20260506002728 83 4 4.3 5.2 0.00 0.00 0.00 92 1009.0
20260506002224 83 4 5.2 5.2 0.00 0.00 0.00 92 1008.9
20260506001720 82 4 5.2 6.1 0.00 0.00 0.00 92 1008.8
20260506001217 82 354 5.2 6.1 0.00 0.00 0.00 92 1008.8
20260506000714 82 355 5.2 6.1 0.00 0.00 0.00 92 1009.0
20260506000212 82 0 5.2 6.1 0.00 0.00 0.00 92 1008.7
20260505235709 82 358 6.1 6.1 0.00 0.00 0.00 92 1008.7
20260505235207 82 352 5.2 6.1 0.00 0.00 0.00 92 1008.6
20260505234703 82 352 5.2 6.1 0.00 0.00 0.00 92 1008.3
20260505234201 82 357 5.2 6.1 0.00 0.00 0.00 93 1008.5
20260505233657 82 358 5.2 6.1 0.00 0.00 0.00 93 1008.4
20260505233155 82 6 5.2 6.1 0.00 0.00 0.00 93 1008.3
20260505232652 82 1 4.3 5.2 0.00 0.00 0.00 92 1008.3
20260505232149 82 11 5.2 5.2 0.00 0.00 0.00 92 1008.3
20260505231645 82 6 5.2 5.2 0.00 0.00 0.00 92 1008.2
20260505231145 82 8 4.3 5.2 0.00 0.00 0.00 92 1008.4
20260505230642 82 13 5.2 5.2 0.00 0.00 0.00 92 1008.2
20260505230138 82 5 5.2 5.2 0.00 0.00 0.00 91 1008.2
20260505225634 82 5 5.2 5.2 0.00 0.00 0.00 91 1008.2
20260505225131 82 6 4.3 5.2 0.00 0.00 0.00 91 1008.0
20260505224627 82 13 4.3 5.2 0.00 0.00 0.00 91 1008.2
20260505224125 82 9 5.2 5.2 0.00 0.00 0.00 92 1008.0
20260505223622 82 9 4.3 5.2 0.00 0.00 0.00 92 1008.0
20260505223118 82 14 4.3 5.2 0.00 0.00 0.00 92 1008.0
20260505222615 82 7 4.3 5.2 0.00 0.00 0.00 92 1007.9
20260505222111 82 8 5.2 5.2 0.00 0.00 0.00 91 1008.2
20260505221608 82 8 4.3 5.2 0.00 0.00 0.00 91 1007.9
20260505221104 82 8 5.2 5.2 0.00 0.00 0.00 91 1007.9
20260505220602 82 5 4.3 5.2 0.00 0.00 0.00 91 1007.7
20260505220100 82 9 5.2 5.2 0.00 0.00 0.00 91 1007.6
20260505215557 82 9 4.3 5.2 0.00 0.00 0.00 91 1007.7
20260505215055 82 12 4.3 5.2 0.00 0.00 0.00 91 1007.5
20260505214553 82 15 4.3 5.2 0.00 0.00 0.00 91 1007.6
20260505214049 82 10 4.3 5.2 0.00 0.00 0.00 91 1007.5
20260505213548 82 12 4.3 5.2 0.00 0.00 0.00 91 1007.5
20260505213043 82 11 4.3 5.2 0.00 0.00 0.00 91 1007.5
20260505212540 82 15 4.3 5.2 0.00 0.00 0.00 91 1007.5
20260505212038 82 13 4.3 5.2 0.00 0.00 0.00 91 1007.7
20260505211534 82 12 4.3 5.2 0.00 0.00 0.00 91 1007.5
20260505211031 82 6 4.3 5.2 0.00 0.00 0.00 91 1007.9
20260505210528 82 13 4.3 5.2 0.00 0.00 0.00 91 1007.6
20260505210025 82 9 4.3 5.2 0.00 0.00 0.00 91 1007.8
20260505205523 82 15 4.3 5.2 0.00 0.00 0.00 91 1007.8
20260505205020 82 9 4.3 5.2 0.00 0.00 0.00 91 1007.8
20260505204518 82 12 5.2 5.2 0.00 0.00 0.00 91 1007.9
20260505204015 82 13 4.3 5.2 0.00 0.00 0.00 91 1007.9
20260505203511 82 9 4.3 5.2 0.00 0.00 0.00 91 1008.0
20260505203008 82 9 5.2 5.2 0.00 0.00 0.00 91 1007.9
20260505202504 82 11 4.3 5.2 0.00 0.00 0.00 91 1008.0
20260505202000 82 1 5.2 5.2 0.00 0.00 0.00 91 1008.0
20260505201457 82 7 5.2 5.2 0.00 0.00 0.00 91 1007.8
20260505200955 82 1 5.2 5.2 0.00 0.00 0.00 91 1007.9
20260505200452 82 7 5.2 5.2 0.00 0.00 0.00 91 1007.9